Torna al catalogo

STARLINK-3230

AttivoComunicazioniVLEO
NORAD 50845·PAYLOAD·🇺🇸 United States

Lanciato Jan 6, 2022 da Cape Canaveral Space Force Station

Loading…

Prossimi Passaggi (prossime 24 ore)

TLE

AggiornatoSource: CelesTrak SupGP

Epoca: Sep 14, 2026, 21:22 UTC

1 50845C 22001AU  26257.89076389  .00007702  00000+0  24768-3 0  2571
2 50845  53.1603  36.6120 0001161  69.6852 247.6210 15.31697172    10

Traccia STARLINK-3230 in tempo reale con AllMySat

Download on the App Store